This demonstration page uses our WeatherBlox Daily Observations layout. Learn more.

Left ArrowRight Arrow

30.21309, -93.2044

Hourly Observations for May 23, 2020

Temp ( °F °C ) Dew Point ( °F °C ) Humidity (%) Winds ( mph kmh ) Pressure ( in mb ) Visibility ( mi km ) Precip ( " mm )
12:15 am 00:15 Cloudy 78 25.7 77 24.9 95 95 SSE 7 11 29.93 1014 10 16 0.00 0.00
12:35 am 00:35 Cloudy 78 25.7 77 24.8 95 95 SSE 8 13 29.94 1014 10 16 0.00 0.00
12:55 am 00:55 Cloudy 78 25.7 76 24.7 94 94 S 8 13 29.94 1014 10 16 0.00 0.00
1:15 am 01:15 Mostly Cloudy 78 25.3 76 24.5 95 95 SSE 9 15 29.94 1014 10 16 0.00 0.00
1:35 am 01:35 Mostly Cloudy 77 25.2 76 24.4 95 95 SSE 8 13 29.94 1014 10 16 0.00 0.00
1:55 am 01:55 Cloudy 78 25.3 76 24.4 95 95 SSE 9 15 29.94 1014 10 16 0.00 0.00
2:15 am 02:15 Mostly Cloudy 78 25.3 76 24.4 95 95 SSE 8 13 29.93 1014 10 16 0.00 0.00
2:35 am 02:35 Mostly Cloudy 77 25.1 76 24.3 95 95 SSE 9 15 29.92 1013 10 16 0.00 0.00
2:55 am 02:55 Mostly Cloudy 77 24.8 75 24.1 96 96 SSE 9 15 29.92 1013 10 16 0.00 0.00
3:15 am 03:15 Mostly Cloudy 77 24.9 75 24.1 95 95 SSE 9 15 29.92 1013 10 16 0.00 0.00
3:35 am 03:35 Partly Cloudy 77 24.9 75 24.1 95 95 SSE 9 15 29.92 1013 10 16 0.00 0.00
3:55 am 03:55 Partly Cloudy 76 24.5 75 23.8 96 96 SSE 7 11 29.93 1014 10 16 0.00 0.00
4:15 am 04:15 Partly Cloudy 76 24.5 75 23.9 96 96 SSE 8 13 29.93 1014 10 16 0.00 0.00
4:35 am 04:35 Clear 76 24.4 75 23.7 96 96 SSE 7 11 29.94 1014 10 16 0.00 0.00
4:55 am 04:55 Clear 76 24.2 74 23.6 96 96 SSE 7 11 29.94 1014 10 16 0.00 0.00
5:15 am 05:15 Clear 75 24 74 23.5 97 97 SSE 6 9 29.95 1014 10 16 0.00 0.00
5:35 am 05:35 Clear 75 24 74 23.4 96 96 SSE 6 9 29.95 1014 10 16 0.00 0.00
6:00 am 06:00 Mostly Clear 75 24 73 23 94 94 SSE 6 9 29.96 1015 10 16 0.00 0.00
6:55 am 06:55 Mostly Sunny 75 24 75 24 100 100 SE 6 9 29.97 1015 10 16 0.00 0.00
7:51 am 07:51 Mostly Sunny 79 26 75 24 89 89 SE 7 11 29.99 1016 10 16 0.00 0.00
8:55 am 08:55 Mostly Cloudy 75 24 75 24 100 100 SE 10 17 29.99 1016 10 16 0.00 0.00
9:54 am 09:54 Mostly Cloudy 84 29 75 24 74 74 SSE 14 22 29.99 1016 10 16 0.00 0.00
10:45 am 10:45 Mostly Cloudy 88 31 73 23 62 62 S 12 19 29.99 1016 10 16 0.00 0.00
11:50 am 11:50 Mostly Cloudy 86 30 72 22 62 62 S 10 17 30.00 1016 10 16 0.00 0.00
12:55 pm 12:55 Mostly Cloudy 88 31 73 23 62 62 S 12 19 30.00 1016 10 16 0.00 0.00
1:52 pm 13:52 Partly Cloudy 88 31 73 23 62 62 S 15 24 29.97 1015 10 16 0.00 0.00
2:50 pm 14:50 Mostly Cloudy 90 32 73 23 59 59 S 12 19 29.94 1014 10 16 0.00 0.00
3:50 pm 15:50 Mostly Cloudy 90 32 72 22 55 55 SSW 12 19 29.93 1014 10 16 0.00 0.00
4:50 pm 16:50 Partly Cloudy 88 31 72 22 59 59 S 13 20 29.90 1013 10 16 0.00 0.00
5:50 pm 17:50 Partly Cloudy 88 31 73 23 62 62 S 13 20 29.90 1013 10 16 0.00 0.00
6:55 pm 18:55 Partly Cloudy 84 29 73 23 70 70 SSE 15 24 29.89 1012 10 16 0.00 0.00
7:50 pm 19:50 Partly Cloudy 81 27 73 23 79 79 SSE 12 19 29.90 1013 10 16 0.00 0.00
8:50 pm 20:50 Mostly Clear 79 26 73 23 84 84 SSE 8 13 29.90 1013 10 16 0.00 0.00
9:50 pm 21:50 Mostly Clear 77 25 73 23 89 89 SE 7 11 29.91 1013 10 16 0.00 0.00
10:15 pm 22:15 Clear 78 25.7 75 23.8 89 89 SE 9 15 29.92 1013 10 16 0.00 0.00
10:35 pm 22:35 Clear 78 25.5 75 23.8 90 90 SE 9 15 29.93 1014 10 16 0.00 0.00
10:55 pm 22:55 Clear 78 25.5 75 23.9 91 91 SE 10 17 29.94 1014 10 16 0.00 0.00
11:15 pm 23:15 Clear 78 25.4 75 23.9 91 91 SE 10 17 29.94 1014 10 16 0.00 0.00
11:35 pm 23:35 Clear 78 25.3 75 23.8 91 91 SE 9 15 29.94 1014 10 16 0.00 0.00
11:55 pm 23:55 Clear 78 25.3 75 23.7 91 91 SE 8 13 29.94 1014 10 16 0.00 0.00

Powered by AerisWeather